Regional Weather Roundup
Issued by NWS Jackson, KY

Home | Current Version | Previous Version | Graphics & Text | Print | Product List | Glossary On
Versions: 1 2 3 4 5 6 7 8 9 10 11 12 13 14 15 16 17 18 19 20 21 22 23 24 25 26 27 28 29 30 31 32 33 34 35 36 37 38 39 40 41 42 43 44 45 46 47 48 49 50
419
ASUS43 KJKL 271310
RWRJKL

EAST KENTUCKY HOURLY WEATHER ROUNDUP
NATIONAL WEATHER SERVICE JACKSON KY
800 AM EST MON FEB 27 2017

NOTE: "FAIR" INDICATES FEW OR NO CLOUDS BELOW 12,000 FEET WITH
NO SIGNIFICANT WEATHER AND/OR OBSTRUCTIONS TO VISIBILITY.

* THESE REPORTS ARE NOT UNDER NWS QUALITY CONTROL AND MAY NOT
  REPORT WEATHER SUCH AS PRECIPITATION AND FOG.

KYZ079-080-083-085-087-088-110-112-115-119-120-271400
...EASTERN KENTUCKY...

CITY           SKY/WX    TMP DP  RH WIND       PRES   REMARKS
JACKSON        CLOUDY    42  22  44 E3        30.29R
LONDON         CLOUDY    42  31  64 S3        30.26F
SOMERSET*      CLOUDY    43  30  61 CALM      30.28R
MONTICELLO*    CLOUDY    43  31  62 CALM      30.28R
WILLIAMSBURG*  CLOUDY    41  23  48 SE8       30.26F
MIDDLESBORO*   MOCLDY    35  32  88 CALM      30.32R
HARLAN APT*    CLOUDY    36  28  75 CALM      30.30S
PIKE CO APT*   CLOUDY    40  24  54 N6        30.30S
BIG SANDY APT* CLOUDY    41  24  50 E6        30.31R
MOREHEAD APT*  LGT RAIN  41  39  93 SE3       30.31S
ASHLAND*       CLOUDY    43  39  87 SE3       30.31R
$$

KYZ035-036-041-042-044-050-067-078-099-271400
...CENTRAL KENTUCKY...

CITY           SKY/WX    TMP DP  RH WIND       PRES   REMARKS
FLEMING/MASON* LGT RAIN  40  39  97 S5        30.31R
DANVILLE*      LGT RAIN  37  36  93 CALM      30.27R
LEXINGTON      LGT RAIN  42  39  89 SE5       30.26S
FRANKFORT      CLOUDY    42  38  85 SE6       30.25R
LOUISVILLE     LGT RAIN  44  40  85 SE7       30.23S
LEBANON*         N/A     41  39  93 E7        30.24S
GLASGOW*       LGT RAIN N/A N/A N/A SE3       30.21S
BOWLING GREEN  LGT RAIN  47  43  86 SE7       30.20S
$$

KYZ091>093-OHZ055-061-077-WVZ005-015-034-035-042-271400
...SOUTHERN OHIO/WEST VIRGINIA...

CITY           SKY/WX    TMP DP  RH WIND       PRES   REMARKS
COVINGTON      LGT RAIN  41  37  86 S8        30.24R
COLUMBUS       CLOUDY    42  21  43 S3        30.25S
DAYTON         CLOUDY    40  22  48 S6        30.24R
WILMINGTON     LGT RAIN  40  34  79 S8        30.25R WCI  34
HUNTINGTON     LGT RAIN  41  39  93 CALM      30.32S
CHARLESTON     CLOUDY    39  36  89 E5        30.34R
PINEVILLE*     MOSUNNY   34  24  67 MISG      30.36R
BECKLEY        CLOUDY    36  22  56 CALM      30.31R
BLUEFIELD      CLOUDY    36  14  40 SE5       30.32R WCI  32
LOGAN CO APT*  PTSUNNY   43  23  45 NE6       30.30S
$$

VAZ002-007-008-TNZ017-027-036-066-071-271400
...SOUTHWEST VIRGINIA/EAST TENNESSEE...

CITY           SKY/WX    TMP DP  RH WIND       PRES   REMARKS
WISE*          CLOUDY    37  23  56 CALM      30.30R
JONESVILLE*      N/A     36  30  80 CALM      30.33R
ABINGDON*      MOSUNNY   41  19  41 E3        30.30S
BRISTOL        CLOUDY    34  25  69 CALM      30.31R
MORRISTOWN*    PTSUNNY   39  23  52 E5        30.28R
SEVIERVILLE*   SUNNY     30  27  86 CALM      30.28R
KNOXVILLE      CLOUDY    40  25  55 N8        30.28R WCI  34
LAFOLLETTE*    SUNNY     36  32  87 CALM      30.32S
OAK RIDGE      PTCLDY    38  30  73 CALM      30.30R
CROSSVILLE     PTCLDY    40  24  53 CALM      30.26R
NASHVILLE      CLOUDY    48  29  47 CALM      30.23R
$$

...KEY TO REMARKS...
VSB - VISIBILITY IN MILES
WCI - WIND CHILL INDEX
HX  - HEAT INDEX

$$




USA.gov is the U.S. government's official web portal to all federal, state and local government web resources and services.